User: anonymous   Login
Location: Luz Observatory
(34.5000°N, 117.2833°W)
Time: 16:23:15
(UTC-07:00)
Language:

Okean 3 Rocket - Orbit

View from above orbital plane
View from above orbital plane
View from above satellite
View from above satellite

Ground track
Ground track

The orbit data is extracted from the following two-line orbital elements,

1 21398U 91039B   18109.60762052 +.00000036 +00000-0 +17707-5 0  9998
2 21398 082.5199 300.9413 0019938 257.5099 162.6466 14.79701205428186
Epoch (UTC): 19 April 2018 14:34:58
Eccentricity: 0.0019938
inclination: 82.5199°
perigee height: 616 km
apogee height: 644 km
right ascension of ascending node: 300.9413°
argument of perigee: 257.5099°
revolutions per day: 14.79701205
mean anomaly at epoch: 162.6466°
orbit number at epoch: 42818

The dashed part of the orbit path shows where the satellite is in the earth's shadow,  

DLR